Location: Hope
(40.9110°N, 74.9680°W)
Time: 04:27:35
(UTC-04:00)

Envisat - Pass Details

Date: 29 January 2019
Orbit: 764 x 766 km, 98.2° (Epoch: 22 April)

Event Time Altitude Azimuth Distance (km) Brightness Sun altitude
Rises 06:13:34 0° 33° (NNE) 3,241 6.5 -11.5°
Reaches altitude 10° 06:17:06 10° 59° (ENE) 2,309 6.2 -10.9°
Maximum altitude 06:19:41 14° 90° (E) 2,043 6.5 -10.4°
Drops below altitude 10° 06:22:15 10° 121° (ESE) 2,300 6.9 -9.9°
Sets 06:25:44 0° 146° (SE) 3,220 7.1 -9.3°
